Location: Le Royon
(50.3342°N, 1.5765°E)
Time: 17:00:45
(UTC+00:00)

Daily predictions for brighter satellites

Satellite Brightness Start Highest point End
(mag) Time Altitude Azimuth Time Altitude Azimuth Time Altitude Azimuth
Cosmos 2333 Rocket 3.1 20:43:01 10° SSE 20:47:46 28° ESE 20:52:35 10° NE
ATLAS 2AS CENTAUR R/B 4.0 20:42:04 10° NW 20:49:24 41° NNE 20:56:11 10° E
Cosmos 1315 Rocket 4.1 20:46:35 10° N 20:50:11 28° ENE 20:53:46 10° SE
Resurs 01 Rocket 2.7 20:48:39 10° S 20:52:53 44° W 20:57:08 10° NNW
CZ-2C R/B 3.9 20:48:12 10° N 20:53:25 47° WNW 20:58:28 10° SW
Cosmos-2242 3.1 20:49:31 10° N 20:53:52 75° ENE 20:58:14 10° SSE
Cosmos 1818 3.6 20:49:20 10° SSW 20:54:41 63° SE 21:00:05 10° NE
Cosmos 773 Rocket 4.5 20:52:52 10° S 20:57:48 41° ESE 21:02:46 10° NE
SL-16 R/B 3.1 20:53:00 10° SW 20:58:34 56° NW 21:04:11 10° NNE
Cosmos 2221 4.1 20:55:05 10° NNE 20:58:35 23° ENE 21:02:03 10° ESE
ERS-1 Rocket 3.2 20:57:22 10° SSE 21:02:20 62° ENE 21:07:20 10° N
GEOS 3 Rocket 3.8 20:58:21 10° NE 21:03:39 54° SE 21:08:55 10° SSW
USA 215 3.7 21:01:08 10° ENE 21:07:13 39° SE 21:13:15 10° SSW
Cosmos 2278 Rocket 3.2 21:02:04 10° NNW 21:07:23 39° NE 21:12:40 10° ESE
ATLAS 5 CENTAUR R/B 1.5 21:07:08 10° SSW 21:11:17 69° SE 21:15:59 10° NE
Cosmos 1844 Rocket 3.1 21:06:53 10° NW 21:12:21 58° WSW 21:17:47 10° S
USA 245 3.8 21:09:17 10° S 21:12:35 55° W 21:16:46 10° NNW
Meteor 1-11 4.4 21:07:07 10° S 21:12:36 56° E 21:18:10 10° NNE
Cosmos 1400 Rocket 3.1 21:09:14 10° NNW 21:13:13 67° W 21:17:07 10° S
Gblst 52 Del rocket 4.3 21:07:37 10° WNW 21:13:15 83° SSW 21:19:30 10° ESE
Cosmos 1758 Rocket 3.8 21:11:08 10° SSW 21:15:38 75° WNW 21:20:08 10° N
SPOT 5 3.0 21:14:01 10° SSE 21:19:02 74° ENE 21:23:49 10° N
Lacrosse 5 rocket 3.2 21:15:26 10° WNW 21:19:19 34° N 21:23:02 10° ENE
BREEZE-M DEB (TANK) 4.4 21:15:57 10° W 21:20:05 83° S 21:36:13 10° ESE
Spot 2 Rocket 4.2 21:18:00 10° S 21:22:58 52° W 21:27:58 10° NNW
USA 81 4.2 21:20:24 10° S 21:25:35 63° E 21:30:50 10° NNE
BREEZE M DEB (TANK) 3.1 21:24:19 10° W 21:26:33 24° SSW 21:27:39 16° SSE
Cosmos 2181 Rocket 4.1 21:21:39 10° N 21:28:03 83° E 21:34:15 10° S
TSX-5 4.4 21:31:03 10° NNW 21:34:18 41° NE 21:37:35 13° ESE
Cosmos 2074 Rocket 4.5 21:29:15 11° SSE 21:34:49 45° E 21:40:41 10° NNE
SPOT 1/Viking Rocket 4.2 21:32:34 10° S 21:37:35 51° W 21:42:38 10° NNW
Cosmos 1953 Rocket 3.7 21:34:25 10° SSW 21:38:44 77° W 21:43:05 10° N
USA 267 3.3 21:34:40 10° ESE 21:41:14 85° NNE 21:47:51 10° WNW
SAR-Lupe-2 4.1 21:39:34 10° N 21:43:07 61° WNW 21:46:40 10° SSW
Cosmos 2084 3.6 21:40:14 10° NW 21:44:42 72° SW 21:48:05 17° SSE
Cosmos 1842 Rocket 3.6 21:41:19 10° N 21:45:41 70° ENE 21:49:02 16° SSE
Cosmos 2322 Rocket 4.1 21:41:02 10° WSW 21:46:06 34° NW 21:51:13 10° NNE
MTI 4.2 21:48:35 10° NNE 21:51:31 39° E 21:53:10 21° SSE
ATLAS CENTAUR R/B 1.5 21:52:32 10° NW 21:56:09 51° SW 21:58:26 20° SSE
Cosmos 1825 4.1 21:58:09 14° ESE 21:59:40 17° E 22:02:10 10° NE
Cosmos 1980 4.3 21:56:55 16° SSE 22:00:54 37° ESE 22:06:02 10° NE
ALOS 2 4.5 21:58:07 10° ESE 22:01:23 21° ENE 22:04:39 10° NNE
COSMOS 2428 2.7 21:59:59 10° SSW 22:05:39 84° ESE 22:11:23 10° NNE
Cosmos 1869 3.3 22:02:39 10° N 22:06:39 87° W 22:09:22 20° S
Cosmos 2322 4.3 22:03:57 10° SW 22:09:38 62° NW 22:15:20 10° NNE
NOSS 0 Rocket 4.1 22:07:31 12° S 22:13:08 54° ESE 22:19:08 10° NE
NOSS 3-4 (A) 3.9 22:06:18 10° NW 22:13:10 79° NE 22:19:46 15° SE
NOSS 3-4 (C) 3.9 22:06:24 10° NW 22:13:17 79° NE 22:19:54 14° SE
Terra 2.5 22:10:33 14° S 22:14:26 49° W 22:19:06 10° NNW
Cosmos 2237 Rocket 2.6 22:14:58 17° S 22:19:05 47° ESE 22:24:33 10° NE
Genesis I 4.3 22:18:36 23° SE 22:19:32 26° ESE 22:22:50 10° ENE
BREEZE-M DEB 4.5 22:16:01 10° W 22:20:06 56° SSW 22:35:28 10° SE
Cosmos 2219 Rocket 2.5 22:15:56 10° SW 22:21:30 71° WNW 22:27:09 10° NNE
Cosmos 2344 4.0 22:16:02 15° S 22:21:35 39° ESE 22:28:47 10° NE
Atlas Centaur 2 4.4 22:19:38 10° SSW 22:21:20 12° SSW 22:21:20 12° SSW
Cosmos 1538 Rocket 4.4 22:17:25 10° SW 22:22:46 67° WNW 22:28:05 10° NNE
Cosmos 2360 Rocket 4.0 22:18:56 10° WSW 22:23:58 32° NW 22:29:04 10° NNE
NOSS 3-3 (A) 4.0 22:18:08 10° SW 22:24:06 89° NW 22:30:54 10° NE
NOSS 3-3 (C) 4.0 22:18:15 10° SW 22:24:12 90° WNW 22:31:02 10° NE
Cosmos 1315 Rocket 4.3 22:23:07 10° NNW 22:26:44 30° W 22:29:55 12° SSW
Thor Agena Rocket 3.8 22:25:14 10° NNE 22:30:15 51° E 22:33:18 22° SSE
Cosmos 2333 Rocket 2.8 22:26:05 10° SW 22:31:41 59° NW 22:37:23 10° NNE
Cosmos 2184 Rocket 4.1 22:27:10 13° SSW 22:32:54 77° W 22:39:15 10° N
Cosmos 2221 3.4 22:32:11 10° NNW 22:36:23 44° W 22:39:20 18° SSW
BREEZE-M DEB (TANK) 1.5 22:35:52 10° W 22:40:17 66° SSW 22:41:22 31° ESE
Iridium 2 3.6 22:36:46 10° N 22:40:37 77° E 22:42:26 29° SSE
Cosmos 1371 Rocket 4.0 22:35:38 10° NNW 22:40:56 83° ENE 22:44:15 24° SSE
ATLAS 2AS CENTAUR R/B 2.8 22:33:28 10° NW 22:41:09 84° SW 22:46:25 20° SE
EO 1 Del DPAF 3.4 22:39:38 10° NNE 22:43:23 56° ESE 22:45:00 30° SSE
Cosmos 1892 2.9 22:41:59 22° SSW 22:44:20 68° WNW 22:48:09 10° N
Aureole 2 Rocket 2.7 22:45:21 10° NNW 22:48:03 42° ENE 22:48:59 30° ESE
Okean 3 Rocket 4.3 22:47:02 25° SE 22:49:04 40° E 22:53:13 10° NNE
Cosmos 1606 3.4 22:46:49 10° N 22:50:32 43° ENE 22:52:19 26° SE
USA 215 3.3 22:44:03 10° ENE 22:50:39 84° NNW 22:57:13 10° WSW
Cosmos 2278 Rocket 2.8 22:46:12 10° NW 22:51:35 46° WSW 22:54:59 21° S
Cosmos 2112 Rocket 4.0 22:48:24 20° S 22:52:06 73° ESE 22:57:28 10° NNE
Cosmos 2297 4.0 22:47:25 10° NNW 22:53:10 66° ENE 22:57:11 20° SE
Cosmos 158 Rocket 3.7 22:52:56 20° SSW 22:56:17 82° ESE 23:01:14 10° NNE
ATLAS 5 CENTAUR R/B 3.8 22:52:28 10° W 22:56:22 29° NNW 23:00:46 10° NE
Cosmos 1420 Rocket 4.4 22:51:53 10° NNW 22:57:06 57° ENE 23:00:36 21° SE
Lacrosse 5 rocket 2.8 22:55:24 10° NW 22:59:14 36° NNE 23:02:51 10° E
Cosmos 1943 Rocket 3.2 22:54:18 10° NNW 22:59:41 41° NE 23:04:40 12° ESE
Spot 4 4.0 22:59:07 26° S 23:01:48 66° WSW 23:06:34 10° NNW
SL-16 R/B 2.8 23:00:47 25° SSE 23:03:28 40° ESE 23:08:44 10° NE
Cosmos 2058 3.8 23:01:11 17° SW 23:04:09 45° WNW 23:08:09 10° N
Cosmos 2056 Rocket 3.6 22:59:27 10° NNW 23:04:52 76° WSW 23:07:58 26° SSE
Cosmos 1408 2.8 23:03:24 27° SSW 23:05:10 61° WNW 23:08:44 10° N
Cosmos 2154 Rocket 4.4 23:07:50 16° SSW 23:12:50 61° WNW 23:19:01 10° N
Cosmos 2341 Rocket 4.0 23:11:46 23° S 23:15:50 86° E 23:22:06 10° N
Cosmos 332 Rocket 4.3 23:13:46 10° NNW 23:18:30 54° ENE 23:21:28 22° SE
Cosmos 1680 Rocket 3.9 23:15:57 14° SW 23:20:32 62° WNW 23:25:51 10° NNE
Meteor 2-3 Rocket 4.2 23:21:02 25° SSE 23:24:00 49° E 23:29:30 10° NNE
USA 267 3.9 23:21:24 24° S 23:24:41 39° SW 23:30:46 10° WNW
Cosmos 2151 3.1 23:23:52 27° SSW 23:26:06 68° WNW 23:30:23 10° N
IRIDIUM 104 4.4 23:23:26 28° S 23:26:14 74° E 23:31:27 10° N
Helios 1A 3.3 23:24:53 28° SE 23:26:54 59° ENE 23:31:01 10° N
Cosmos 405 4.3 23:24:25 10° N 23:27:39 32° ENE 23:29:08 23° ESE
Meteor 1-26 Rocket 4.4 23:25:43 10° N 23:31:45 74° ENE 23:35:20 25° SSE
Cosmos 1452 Rocket 3.6 23:26:39 10° NNW 23:31:57 73° ENE 23:35:06 24° SE
CZ-4C R/B 3.5 23:25:48 10° NW 23:32:28 54° NE 23:40:18 10° ESE
COSMOS 2455 3.0 23:27:37 10° NW 23:33:42 73° NE 23:38:25 17° SE
SL-8 Rocket 3.9 23:30:59 25° S 23:34:48 89° E 23:41:00 10° N
Cosmos 1825 3.0 23:32:56 24° SW 23:34:50 44° WNW 23:38:30 10° N
IRIDIUM 114 4.3 23:32:35 28° S 23:35:23 87° E 23:40:39 10° N
Cosmos 1340 2.8 23:34:23 38° SSE 23:35:34 60° E 23:39:18 10° NNE
Cosmos 1933 3.3 23:32:38 10° NNW 23:36:41 78° W 23:38:13 36° S
ALOS 2 2.9 23:35:27 30° SSW 23:37:22 55° W 23:41:42 10° NNW
Cosmos 1408 Rocket 3.7 23:35:56 33° SSE 23:37:46 64° E 23:42:09 10° NNE
Cosmos 1151 Rocket 3.0 23:33:52 10° NNW 23:38:13 72° W 23:40:03 33° S
Meteor 2-12 Rocket 4.4 23:37:27 26° S 23:41:06 83° E 23:47:16 10° NNE
APEX 2.2 23:41:21 10° NNW 23:44:06 89° ENE 23:44:22 70° SSE
Cosmos 1727 Rocket 4.0 23:37:59 10° N 23:44:14 78° E 23:48:04 25° SSE
Cosmos 2369 Rocket 2.7 23:38:49 10° NNW 23:44:21 57° NE 23:48:49 16° SE
IRIDIUM 103 4.3 23:41:42 28° S 23:44:31 80° W 23:49:47 10° N
Cosmos 44 2.9 23:43:38 30° SSW 23:45:43 75° SE 23:50:10 10° NE
Cosmos 1500 Rocket 4.3 23:44:49 27° SE 23:46:38 40° E 23:50:45 10° NNE
GP-B 3.4 23:42:19 10° N 23:46:43 60° W 23:48:50 29° SSW
Cosmos 371 Rocket 3.4 23:43:22 10° NNW 23:48:13 66° WSW 23:50:25 31° S
SL-4 R/B 1.8 23:48:59 34° NW 23:48:59 34° NW 23:50:26 10° NNW
Helios 1B rocket 3.7 23:50:16 10° NE 23:53:54 29° E 23:55:23 23° SE
CREW DRAGON DEMO-1 DEB 2.6 23:54:49 47° SW 23:55:31 74° SSE 23:58:36 10° ENE
